Location: Croydon
(51.3762°N, 0.0982°W)
Time: 16:30:20
(UTC+00:00)

Vanguard 3 - All Passes

Search period start: 20 November 2019 00:00
Search period end: 30 November 2019 00:00
Orbit: 508 x 3263 km, 33.4° (Epoch: 20 November)

Date Brightness Start Highest point End Pass type
(mag) Time Alt. Az. Time Alt. Az. Time Alt. Az.
20 Nov - 11:13:08 10° S 11:24:15 19° SE 11:35:33 10° ESE daylight
20 Nov - 13:20:52 10° SW 13:37:15 35° SSE 13:52:01 10° ESE daylight
20 Nov - 15:33:49 10° WSW 15:51:13 41° S 16:04:35 10° ESE daylight
20 Nov - 17:49:40 10° WSW 18:04:12 31° SSW 18:14:33 10° SSE visible
20 Nov - 20:10:08 10° WSW 20:14:54 12° SW 20:19:01 10° SSW visible
21 Nov - 10:06:04 10° SE 10:09:42 11° SE 10:13:23 10° ESE daylight
21 Nov - 12:07:05 10° SSW 12:21:41 29° SSE 12:36:11 10° E daylight
21 Nov - 14:18:02 10° SW 14:35:28 41° S 14:50:18 10° ESE daylight
21 Nov - 16:32:32 10° WSW 16:49:16 38° SSW 17:01:40 10° SE visible
21 Nov - 18:49:56 10° W 19:01:15 22° SW 19:09:47 10° S visible
22 Nov - 10:54:52 10° S 11:06:34 21° SE 11:18:58 10° E daylight
22 Nov - 13:03:11 10° SW 13:19:36 37° SSE 13:35:15 10° ESE daylight
22 Nov - 15:16:07 10° WSW 15:33:44 42° S 15:47:59 10° ESE daylight
22 Nov - 17:31:56 10° W 17:46:54 31° SSW 17:57:59 10° SSE visible
22 Nov - 19:53:13 10° WSW 19:57:41 12° SW 20:01:39 10° SW visible
23 Nov - 09:45:55 10° SSE 09:52:03 13° SE 09:58:33 10° ESE daylight
23 Nov - 11:49:24 10° SSW 12:03:59 31° SSE 12:19:18 10° E daylight
23 Nov - 14:00:28 10° SW 14:17:51 42° S 14:33:32 10° ESE daylight
23 Nov - 16:14:51 10° WSW 16:31:49 38° SSW 16:45:03 10° SE visible
23 Nov - 18:32:22 10° W 18:43:55 21° SW 18:52:57 10° S visible
24 Nov - 10:37:02 10° S 10:48:53 23° SE 11:02:05 10° E daylight
24 Nov - 12:45:43 10° SW 13:01:55 39° SSE 13:18:19 10° ESE daylight
24 Nov - 14:58:34 10° WSW 15:16:11 42° S 15:31:14 10° SE daylight
24 Nov - 17:14:18 10° W 17:29:28 30° SSW 17:41:14 10° SSE visible
24 Nov - 19:36:44 10° WSW 19:40:21 11° SW 19:43:41 10° SW visible
25 Nov - 09:27:10 10° SSE 09:34:25 14° SE 09:42:25 10° ESE daylight
25 Nov - 11:31:59 10° SSW 11:46:18 33° SSE 12:02:12 10° E daylight
25 Nov - 13:43:05 10° WSW 14:00:12 43° S 14:16:37 10° ESE daylight
25 Nov - 15:57:18 10° WSW 16:14:17 38° SSW 16:28:16 10° SE daylight
25 Nov - 18:14:56 10° W 18:26:29 20° SW 18:35:53 10° S visible
26 Nov - 10:19:30 10° S 10:31:13 25° SE 10:44:57 10° E daylight
26 Nov - 12:28:28 10° SW 12:44:15 40° SSE 13:01:11 10° ESE daylight
26 Nov - 14:41:11 10° WSW 14:58:33 42° S 15:14:19 10° SE daylight
26 Nov - 16:56:47 10° W 17:11:55 29° SSW 17:24:17 10° SSE visible
26 Nov - 19:21:49 10° WSW 19:22:55 10° SW 19:24:00 10° SW visible
27 Nov - 09:09:08 10° SSE 09:16:50 16° SE 09:25:42 10° ESE daylight
27 Nov - 11:14:48 10° SSW 11:28:38 34° SSE 11:44:55 10° E daylight
27 Nov - 13:25:52 10° WSW 13:42:32 43° S 13:59:32 10° ESE daylight
27 Nov - 15:39:54 10° WSW 15:56:40 37° SSW 16:11:17 10° SE daylight
27 Nov - 17:57:41 10° W 18:08:57 19° SW 18:18:32 10° S visible
28 Nov - 10:02:16 10° SSW 10:13:38 26° SE 10:27:38 10° E daylight
28 Nov - 12:11:24 10° SW 12:26:35 41° SSE 12:43:56 10° ESE daylight
28 Nov - 14:23:58 10° WSW 14:40:53 42° S 14:57:14 10° SE daylight
28 Nov - 16:39:26 10° W 16:54:18 28° SW 17:07:07 10° SSE visible
29 Nov - 08:51:33 10° SSE 08:59:20 17° SE 09:08:39 10° ESE daylight
29 Nov - 10:57:49 10° SSW 11:11:02 35° SSE 11:27:29 10° E daylight
29 Nov - 13:08:51 10° WSW 13:24:52 43° S 13:42:17 10° ESE daylight
29 Nov - 15:22:41 10° W 15:39:00 35° SSW 15:54:05 10° SSE daylight
29 Nov - 17:40:40 10° W 17:51:21 18° SW 18:00:50 10° S visible
